When you browse on this site, cookies collect data to enhance your experience and personalize the content and advertising you see.
Visit our Privacy Policy to learn more. By continuing to use the site, you agree to this use of cookies and data.
  • In Hungary
  • List of Countries
  • For 7 days
  • Water Temperature
  • Weather Map
  • News
  • Weather Widgets
  • user-avatar
    Login

    Hourly Weather Barbalha

    Today, 21 November, Thursday

    Time Temperature Precipitation Wind Pressure Humidity
    00:00 +26°C° 0 mm 3 mps 720 mmHg 54%
    01:00 +25°C° 0 mm 2 mps 720 mmHg 62%
    02:00 +24°C° 0 mm 2 mps 720 mmHg 70%
    03:00 +23°C° 0 mm 2 mps 721 mmHg 78%
    04:00 +23°C° 0 mm 2 mps 721 mmHg 77%
    05:00 +23°C° 0 mm 2 mps 721 mmHg 76%
    06:00 +23°C° 0 mm 2 mps 721 mmHg 75%
    07:00 +26°C° 0 mm 2 mps 722 mmHg 63%
    08:00 +28°C° 0 mm 3 mps 722 mmHg 51%
    09:00 +31°C° 0 mm 3 mps 722 mmHg 39%
    10:00 +34°C° 0 mm 3 mps 722 mmHg 34%
    11:00 +37°C° 0 mm 2 mps 721 mmHg 28%
    12:00 +39°C° 0 mm 2 mps 721 mmHg 23%
    13:00 +39°C° 0 mm 2 mps 720 mmHg 22%
    14:00 +39°C° 0 mm 2 mps 719 mmHg 21%
    15:00 +40°C° 0 mm 2 mps 718 mmHg 19%
    16:00 +37°C° 0 mm 2 mps 718 mmHg 22%
    17:00 +34°C° 0 mm 1 mps 718 mmHg 26%
    18:00 +31°C° 0 mm 1 mps 718 mmHg 29%
    19:00 +31°C° 0 mm 1 mps 718 mmHg 30%
    20:00 +30°C° 0 mm 1 mps 719 mmHg 32%
    21:00 +27°C° 0 mm 0 mps 719 mmHg 34%
    22:00 +28°C° 0 mm 1 mps 719 mmHg 43%
    23:00 +27°C° 0 mm 1 mps 719 mmHg 53%

    Tomorrow, 22 November, Friday

    Time Temperature Precipitation Wind Pressure Humidity
    00:00 +25°C° 0 mm 1 mps 720 mmHg 63%
    01:00 +24°C° 0 mm 1 mps 720 mmHg 71%
    02:00 +23°C° 0 mm 1 mps 720 mmHg 80%
    03:00 +20°C° 0 mm 0 mps 720 mmHg 89%
    04:00 +21°C° 0 mm 0 mps 720 mmHg 87%
    05:00 +23°C° 0 mm 1 mps 720 mmHg 85%
    06:00 +23°C° 0 mm 1 mps 721 mmHg 84%
    07:00 +26°C° 0 mm 1 mps 721 mmHg 70%
    08:00 +29°C° 0 mm 1 mps 722 mmHg 55%
    09:00 +32°C° 0 mm 2 mps 722 mmHg 41%
    10:00 +35°C° 0 mm 2 mps 722 mmHg 36%
    11:00 +37°C° 0 mm 2 mps 721 mmHg 31%
    12:00 +39°C° 0 mm 2 mps 721 mmHg 26%
    13:00 +39°C° 0 mm 2 mps 720 mmHg 24%
    14:00 +39°C° 0 mm 3 mps 719 mmHg 22%
    15:00 +39°C° 0 mm 3 mps 718 mmHg 20%
    16:00 +37°C° 0 mm 2 mps 718 mmHg 22%
    17:00 +35°C° 0 mm 2 mps 718 mmHg 25%
    18:00 +32°C° 0 mm 2 mps 718 mmHg 28%
    19:00 +31°C° 0 mm 1 mps 718 mmHg 30%
    20:00 +29°C° 0 mm 1 mps 719 mmHg 32%
    21:00 +28°C° 0 mm 1 mps 719 mmHg 34%
    22:00 +27°C° 0 mm 1 mps 720 mmHg 41%
    23:00 +26°C° 0 mm 1 mps 720 mmHg 47%

    Day after tomorrow, 23 November, Saturday

    Time Temperature Precipitation Wind Pressure Humidity
    00:00 +25°C° 0 mm 2 mps 720 mmHg 53%
    01:00 +24°C° 0 mm 2 mps 720 mmHg 63%
    02:00 +24°C° 0 mm 2 mps 720 mmHg 72%
    03:00 +23°C° 0 mm 1 mps 720 mmHg 81%
    04:00 +23°C° 0 mm 1 mps 720 mmHg 82%
    05:00 +23°C° 0 mm 1 mps 720 mmHg 82%
    06:00 +23°C° 0 mm 1 mps 721 mmHg 83%
    07:00 +26°C° 0 mm 1 mps 721 mmHg 70%
    08:00 +30°C° 0 mm 2 mps 722 mmHg 56%
    09:00 +34°C° 0 mm 2 mps 722 mmHg 43%
    10:00 +36°C° 0 mm 2 mps 722 mmHg 37%
    11:00 +38°C° 0 mm 2 mps 721 mmHg 31%
    12:00 +40°C° 0 mm 2 mps 721 mmHg 25%
    13:00 +39°C° 0 mm 2 mps 720 mmHg 26%
    14:00 +39°C° 0 mm 2 mps 719 mmHg 26%
    15:00 +38°C° 0 mm 2 mps 718 mmHg 26%
    16:00 +36°C° 0 mm 2 mps 718 mmHg 29%
    17:00 +34°C° 0 mm 1 mps 718 mmHg 32%
    18:00 +32°C° 0 mm 1 mps 718 mmHg 36%
    19:00 +31°C° 0 mm 1 mps 718 mmHg 37%
    20:00 +28°C° 0 mm 0 mps 719 mmHg 39%
    21:00 +28°C° 0 mm 0 mps 719 mmHg 40%
    22:00 +29°C° 0 mm 1 mps 719 mmHg 44%
    23:00 +28°C° 0 mm 2 mps 719 mmHg 49%

    24 November, Sunday

    Time Temperature Precipitation Wind Pressure Humidity
    00:00 +27°C° 0 mm 3 mps 719 mmHg 53%
    01:00 +26°C° 0 mm 2 mps 719 mmHg 63%
    02:00 +25°C° 0 mm 2 mps 719 mmHg 73%
    03:00 +23°C° 0 mm 1 mps 719 mmHg 83%
    04:00 +23°C° 0 mm 1 mps 719 mmHg 83%
    05:00 +24°C° 0 mm 1 mps 720 mmHg 82%
    06:00 +24°C° 0 mm 1 mps 720 mmHg 82%
    07:00 +27°C° 0 mm 2 mps 721 mmHg 69%
    08:00 +30°C° 0 mm 2 mps 721 mmHg 56%
    09:00 +34°C° 0 mm 3 mps 721 mmHg 44%
    10:00 +36°C° 0 mm 2 mps 721 mmHg 38%
    11:00 +38°C° 0 mm 2 mps 720 mmHg 32%
    12:00 +40°C° 0 mm 2 mps 720 mmHg 26%
    13:00 +40°C° 0 mm 2 mps 719 mmHg 24%
    14:00 +41°C° 0 mm 1 mps 718 mmHg 23%
    15:00 +41°C° 0 mm 1 mps 718 mmHg 22%
    16:00 +37°C° 0 mm 1 mps 717 mmHg 25%
    17:00 +35°C° 0 mm 1 mps 717 mmHg 28%
    18:00 +33°C° 0 mm 1 mps 717 mmHg 31%
    19:00 +32°C° 0 mm 1 mps 718 mmHg 33%
    20:00 +31°C° 0 mm 1 mps 718 mmHg 35%
    21:00 +30°C° 0 mm 1 mps 719 mmHg 37%
    22:00 +29°C° 0 mm 2 mps 719 mmHg 45%
    23:00 +27°C° 0 mm 2 mps 718 mmHg 52%

    25 November, Monday

    Time Temperature Precipitation Wind Pressure Humidity
    00:00 +26°C° 0 mm 2 mps 718 mmHg 59%
    01:00 +25°C° 0 mm 2 mps 718 mmHg 68%
    02:00 +24°C° 0 mm 2 mps 718 mmHg 78%
    03:00 +23°C° 0 mm 1 mps 718 mmHg 87%
    04:00 +23°C° 0 mm 1 mps 719 mmHg 87%
    05:00 +23°C° 0 mm 2 mps 719 mmHg 87%
    06:00 +24°C° 0 mm 2 mps 720 mmHg 87%
    07:00 +26°C° 0 mm 2 mps 720 mmHg 75%
    08:00 +29°C° 0 mm 2 mps 721 mmHg 64%
    09:00 +31°C° 0 mm 3 mps 721 mmHg 52%
    10:00 +35°C° 0 mm 3 mps 721 mmHg 44%
    11:00 +37°C° 0 mm 2 mps 720 mmHg 37%
    12:00 +40°C° 0 mm 2 mps 720 mmHg 29%
    13:00 +40°C° 0 mm 2 mps 719 mmHg 29%
    14:00 +39°C° 0 mm 2 mps 718 mmHg 29%
    15:00 +39°C° 0 mm 2 mps 717 mmHg 29%
    16:00 +36°C° 0 mm 1 mps 717 mmHg 32%
    17:00 +34°C° 0 mm 1 mps 717 mmHg 35%
    18:00 +32°C° 0 mm 1 mps 717 mmHg 38%
    19:00 +32°C° 0 mm 1 mps 717 mmHg 41%
    20:00 +31°C° 0 mm 1 mps 718 mmHg 43%
    21:00 +30°C° 0 mm 1 mps 718 mmHg 46%
    22:00 +29°C° 0 mm 2 mps 718 mmHg 53%
    23:00 +28°C° 0 mm 3 mps 719 mmHg 60%

    26 November, Tuesday

    Time Temperature Precipitation Wind Pressure Humidity
    00:00 +27°C° 0 mm 3 mps 719 mmHg 67%
    01:00 +26°C° 0 mm 3 mps 718 mmHg 75%
    02:00 +25°C° 0 mm 3 mps 718 mmHg 84%
    03:00 +23°C° 0 mm 2 mps 718 mmHg 92%
    04:00 +24°C° 0 mm 2 mps 719 mmHg 91%
    05:00 +24°C° 0 mm 3 mps 719 mmHg 89%
    06:00 +24°C° 0 mm 3 mps 719 mmHg 88%
    07:00 +26°C° 0 mm 3 mps 720 mmHg 77%
    08:00 +28°C° 0 mm 3 mps 720 mmHg 67%
    09:00 +30°C° 0 mm 3 mps 721 mmHg 56%
    10:00 +33°C° 0 mm 3 mps 720 mmHg 50%
    11:00 +35°C° 0 mm 3 mps 720 mmHg 43%
    12:00 +37°C° 0 mm 3 mps 720 mmHg 37%
    13:00 +37°C° 0 mm 3 mps 719 mmHg 37%
    14:00 +37°C° 0 mm 3 mps 718 mmHg 37%
    15:00 +37°C° 0 mm 3 mps 717 mmHg 37%
    16:00 +35°C° 0 mm 2 mps 718 mmHg 41%
    17:00 +34°C° 0 mm 2 mps 718 mmHg 44%
    18:00 +32°C° 0 mm 1 mps 718 mmHg 47%
    19:00 +31°C° 0 mm 2 mps 718 mmHg 52%
    20:00 +29°C° 0 mm 2 mps 719 mmHg 56%
    21:00 +28°C° 0 mm 3 mps 719 mmHg 61%
    22:00 +27°C° 0.1 mm 3 mps 719 mmHg 66%
    23:00 +27°C° 0.1 mm 3 mps 719 mmHg 72%
    Show more